LPE2061 SPJC-SPZO

Flight info

Callsign LPE2061
Flight time 0h 56m
Altitude 37000
Route JCL DCT LPA DCT AND DCT ZCO
Aircraft A321/M-SDE3FGHIRWY/LB1

Departure

Time 2026-04-28 18:27
Airport Jorge Chávez International Airport (SPJC)

Arrival

Time 2026-04-28 19:23
Airport Alejandro Velasco Astete International Airport (SPZO)
Time Latitude Longitude Altitude Speed Heading
2026-04-28 17:58 -12.02123 -77.11177 101 ft 0 kts 246°
2026-04-28 18:18 -12.02119 -77.11167 99 ft 4 kts 254°
2026-04-28 18:18 -12.02118 -77.11142 99 ft 4 kts 295°
2026-04-28 18:18 -12.02134 -77.11122 100 ft 3 kts 332°
2026-04-28 18:18 -12.02137 -77.11120 100 ft 0 kts 334°
2026-04-28 18:20 -12.02130 -77.11123 100 ft 5 kts 334°
2026-04-28 18:20 -12.02062 -77.11157 99 ft 13 kts 334°
2026-04-28 18:20 -12.01974 -77.11202 96 ft 14 kts 326°
2026-04-28 18:21 -12.01914 -77.11288 97 ft 16 kts 298°
2026-04-28 18:21 -12.01852 -77.11383 92 ft 17 kts 320°
2026-04-28 18:21 -12.01745 -77.11440 88 ft 18 kts 334°
2026-04-28 18:21 -12.01630 -77.11498 87 ft 19 kts 334°
2026-04-28 18:22 -12.01508 -77.11559 83 ft 20 kts 333°
2026-04-28 18:22 -12.01380 -77.11623 81 ft 21 kts 335°
2026-04-28 18:22 -12.01245 -77.11688 68 ft 22 kts 334°
2026-04-28 18:22 -12.01104 -77.11757 69 ft 23 kts 334°
2026-04-28 18:23 -12.00958 -77.11831 67 ft 24 kts 334°
2026-04-28 18:23 -12.00805 -77.11909 62 ft 25 kts 334°
2026-04-28 18:23 -12.00736 -77.11942 56 ft 0 kts 334°
2026-04-28 18:24 -12.00730 -77.11945 61 ft 3 kts 334°
2026-04-28 18:25 -12.00694 -77.11975 61 ft 11 kts 306°
2026-04-28 18:25 -12.00694 -77.12055 57 ft 13 kts 245°
2026-04-28 18:25 -12.00765 -77.12106 59 ft 13 kts 187°
2026-04-28 18:26 -12.00847 -77.12094 59 ft 0 kts 155°
2026-04-28 18:26 -12.00901 -77.12068 59 ft 33 kts 154°
2026-04-28 18:26 -12.01332 -77.11854 72 ft 101 kts 154°
2026-04-28 18:26 -12.02138 -77.11456 93 ft 153 kts 154°
2026-04-28 18:27 -12.03181 -77.10938 408 ft 167 kts 156°
2026-04-28 18:27 -12.04207 -77.10424 1044 ft 164 kts 156°
2026-04-28 18:27 -12.05257 -77.09900 1525 ft 176 kts 157°
2026-04-28 18:27 -12.06432 -77.09326 1740 ft 198 kts 157°
2026-04-28 18:28 -12.07743 -77.08688 1906 ft 220 kts 157°
2026-04-28 18:28 -12.09205 -77.07974 2057 ft 246 kts 156°
2026-04-28 18:28 -12.10811 -77.07185 2542 ft 262 kts 154°
2026-04-28 18:28 -12.12463 -77.06367 3350 ft 265 kts 153°
2026-04-28 18:29 -12.14142 -77.05535 4144 ft 269 kts 154°
2026-04-28 18:29 -12.15836 -77.04693 4891 ft 273 kts 152°
2026-04-28 18:29 -12.17412 -77.03596 5566 ft 277 kts 140°
2026-04-28 18:29 -12.18823 -77.02242 6262 ft 280 kts 134°
2026-04-28 18:30 -12.20151 -77.00799 6890 ft 283 kts 132°
2026-04-28 18:30 -12.21054 -76.99791 7323 ft 285 kts 132°
2026-04-28 18:30 -12.22849 -76.97807 8187 ft 288 kts 134°
2026-04-28 18:30 -12.24381 -76.96485 8821 ft 290 kts 144°
2026-04-28 18:31 -12.26044 -76.95304 9478 ft 292 kts 145°
2026-04-28 18:31 -12.27726 -76.94137 10093 ft 293 kts 145°
2026-04-28 18:31 -12.29467 -76.92938 10339 ft 311 kts 146°
2026-04-28 18:31 -12.31316 -76.91663 10455 ft 330 kts 145°
2026-04-28 18:32 -12.33269 -76.90315 10599 ft 346 kts 145°
2026-04-28 18:32 -12.35289 -76.88919 10987 ft 353 kts 145°
2026-04-28 18:32 -12.37340 -76.87500 11482 ft 357 kts 146°
2026-04-28 18:32 -12.39409 -76.86067 11988 ft 361 kts 146°
2026-04-28 18:33 -12.41497 -76.84620 12497 ft 364 kts 145°
2026-04-28 18:33 -12.43601 -76.83163 13037 ft 366 kts 145°
2026-04-28 18:33 -12.45721 -76.81694 13571 ft 369 kts 145°
2026-04-28 18:33 -12.47856 -76.80215 14021 ft 372 kts 145°
2026-04-28 18:34 -12.49971 -76.78749 14562 ft 373 kts 145°
2026-04-28 18:34 -12.52128 -76.77253 15063 ft 375 kts 145°
2026-04-28 18:34 -12.54300 -76.75748 15517 ft 378 kts 145°
2026-04-28 18:34 -12.56490 -76.74234 15973 ft 381 kts 146°
2026-04-28 18:35 -12.58704 -76.72703 16383 ft 385 kts 145°
2026-04-28 18:35 -12.60930 -76.71161 16846 ft 387 kts 145°
2026-04-28 18:35 -12.63166 -76.69607 17280 ft 390 kts 145°
2026-04-28 18:35 -12.65426 -76.68037 17712 ft 393 kts 145°
2026-04-28 18:36 -12.67698 -76.66460 18143 ft 396 kts 146°
2026-04-28 18:36 -12.69989 -76.64873 18521 ft 399 kts 145°
2026-04-28 18:36 -12.72292 -76.63266 18911 ft 401 kts 143°
2026-04-28 18:36 -12.74387 -76.61373 19256 ft 403 kts 132°
2026-04-28 18:37 -12.76082 -76.59079 19609 ft 405 kts 121°
2026-04-28 18:37 -12.77310 -76.56478 19959 ft 407 kts 110°
2026-04-28 18:37 -12.78167 -76.53697 20288 ft 410 kts 107°
2026-04-28 18:37 -12.79006 -76.50896 20640 ft 413 kts 107°
2026-04-28 18:38 -12.79856 -76.48076 21017 ft 415 kts 107°
2026-04-28 18:38 -12.80701 -76.45284 21341 ft 417 kts 107°
2026-04-28 18:38 -12.81565 -76.42437 21665 ft 420 kts 107°
2026-04-28 18:38 -12.82435 -76.39570 21999 ft 422 kts 107°
2026-04-28 18:39 -12.83308 -76.36689 22325 ft 425 kts 107°
2026-04-28 18:39 -12.84184 -76.33784 22682 ft 427 kts 107°
2026-04-28 18:39 -12.85062 -76.30867 22969 ft 430 kts 107°
2026-04-28 18:39 -12.85951 -76.27917 23284 ft 432 kts 107°
2026-04-28 18:40 -12.86835 -76.24984 23602 ft 434 kts 107°
2026-04-28 18:40 -12.87732 -76.22007 23863 ft 437 kts 107°
2026-04-28 18:40 -12.88638 -76.19007 24168 ft 439 kts 107°
2026-04-28 18:40 -12.89537 -76.16027 24432 ft 441 kts 107°
2026-04-28 18:41 -12.90440 -76.13026 24683 ft 444 kts 107°
2026-04-28 18:41 -12.91354 -76.09981 24867 ft 448 kts 107°
2026-04-28 18:41 -12.92274 -76.06904 25178 ft 451 kts 107°
2026-04-28 18:41 -12.93194 -76.03826 25441 ft 453 kts 107°
2026-04-28 18:42 -12.94119 -76.00734 25685 ft 456 kts 107°
2026-04-28 18:42 -12.95041 -75.97656 25969 ft 457 kts 107°
2026-04-28 18:42 -12.95975 -75.94541 26261 ft 458 kts 107°
2026-04-28 18:42 -12.96913 -75.91410 26525 ft 461 kts 107°
2026-04-28 18:43 -12.97858 -75.88260 26795 ft 463 kts 107°
2026-04-28 18:43 -12.98806 -75.85099 27077 ft 464 kts 107°
2026-04-28 18:43 -12.99760 -75.81928 27326 ft 466 kts 107°
2026-04-28 18:43 -13.00716 -75.78743 27585 ft 468 kts 107°
2026-04-28 18:44 -13.01673 -75.75542 27908 ft 470 kts 107°
2026-04-28 18:44 -13.03589 -75.69108 28397 ft 474 kts 107°
2026-04-28 18:44 -13.04556 -75.65870 28640 ft 476 kts 107°
2026-04-28 18:45 -13.05527 -75.62620 28910 ft 477 kts 107°
2026-04-28 18:45 -13.06499 -75.59357 29156 ft 479 kts 107°
2026-04-28 18:45 -13.07474 -75.56087 29404 ft 481 kts 107°
2026-04-28 18:45 -13.08454 -75.52801 29594 ft 483 kts 107°
2026-04-28 18:46 -13.09442 -75.49493 29873 ft 485 kts 107°
2026-04-28 18:46 -13.10430 -75.46180 30114 ft 487 kts 107°
2026-04-28 18:46 -13.11420 -75.42854 30366 ft 488 kts 107°
2026-04-28 18:46 -13.12407 -75.39527 30660 ft 487 kts 106°
2026-04-28 18:47 -13.13390 -75.36202 30945 ft 486 kts 106°
2026-04-28 18:47 -13.14372 -75.32883 31261 ft 486 kts 106°
2026-04-28 18:47 -13.15356 -75.29562 31533 ft 486 kts 106°
2026-04-28 18:47 -13.16339 -75.26243 31825 ft 486 kts 106°
2026-04-28 18:48 -13.17322 -75.22919 32109 ft 486 kts 106°
2026-04-28 18:48 -13.18304 -75.19598 32428 ft 486 kts 105°
2026-04-28 18:48 -13.19288 -75.16276 32708 ft 486 kts 105°
2026-04-28 18:48 -13.20274 -75.12954 32970 ft 486 kts 105°
2026-04-28 18:49 -13.21259 -75.09638 33263 ft 486 kts 105°
2026-04-28 18:49 -13.21580 -75.08554 33355 ft 486 kts 105°
2026-04-28 18:49 -13.23216 -75.03036 33891 ft 486 kts 105°
2026-04-28 18:49 -13.24200 -74.99715 34191 ft 486 kts 105°
2026-04-28 18:50 -13.25183 -74.96399 34464 ft 485 kts 105°
2026-04-28 18:50 -13.26165 -74.93076 34716 ft 485 kts 105°
2026-04-28 18:50 -13.27141 -74.89758 34972 ft 485 kts 105°
2026-04-28 18:50 -13.28115 -74.86449 35238 ft 484 kts 105°
2026-04-28 18:51 -13.29091 -74.83140 35459 ft 484 kts 105°
2026-04-28 18:51 -13.30069 -74.79831 35697 ft 484 kts 104°
2026-04-28 18:51 -13.31039 -74.76529 35989 ft 483 kts 104°
2026-04-28 18:51 -13.32007 -74.73227 36212 ft 483 kts 104°
2026-04-28 18:52 -13.32976 -74.69927 36451 ft 483 kts 104°
2026-04-28 18:52 -13.33945 -74.66624 36682 ft 482 kts 104°
2026-04-28 18:52 -13.34913 -74.63328 36939 ft 481 kts 104°
2026-04-28 18:52 -13.35878 -74.60039 37189 ft 481 kts 104°
2026-04-28 18:53 -13.36842 -74.56753 37365 ft 481 kts 104°
2026-04-28 18:53 -13.37806 -74.53465 37413 ft 481 kts 104°
2026-04-28 18:53 -13.39739 -74.46888 37422 ft 481 kts 104°
2026-04-28 18:54 -13.41671 -74.40304 37423 ft 482 kts 104°
2026-04-28 18:54 -13.43595 -74.33717 37418 ft 481 kts 104°
2026-04-28 18:55 -13.45197 -74.28232 37418 ft 481 kts 104°
2026-04-28 18:55 -13.47438 -74.20538 37415 ft 481 kts 104°
2026-04-28 18:56 -13.49362 -74.13961 37419 ft 481 kts 104°
2026-04-28 18:56 -13.51286 -74.07377 37404 ft 481 kts 104°
2026-04-28 18:57 -13.53197 -74.00788 37407 ft 481 kts 104°
2026-04-28 18:57 -13.55103 -73.94199 37400 ft 481 kts 104°
2026-04-28 18:58 -13.57016 -73.87612 37389 ft 481 kts 104°
2026-04-28 18:58 -13.58934 -73.81026 37388 ft 481 kts 104°
2026-04-28 18:59 -13.60844 -73.74444 37381 ft 481 kts 104°
2026-04-28 18:59 -13.62744 -73.67901 37401 ft 480 kts 104°
2026-04-28 19:00 -13.64337 -73.62386 37443 ft 480 kts 104°
2026-04-28 19:00 -13.66235 -73.55792 37462 ft 482 kts 104°
2026-04-28 19:01 -13.67650 -73.49068 37459 ft 481 kts 87°
2026-04-28 19:01 -13.67421 -73.45662 37229 ft 475 kts 81°
2026-04-28 19:01 -13.67074 -73.42289 36910 ft 473 kts 81°
2026-04-28 19:02 -13.66714 -73.38927 36675 ft 473 kts 81°
2026-04-28 19:02 -13.66346 -73.35564 36435 ft 473 kts 81°
2026-04-28 19:02 -13.65977 -73.32198 36196 ft 474 kts 81°
2026-04-28 19:02 -13.65613 -73.28824 35957 ft 475 kts 81°
2026-04-28 19:03 -13.65259 -73.25481 35714 ft 476 kts 82°
2026-04-28 19:03 -13.64905 -73.22093 35456 ft 477 kts 82°
2026-04-28 19:03 -13.64553 -73.18696 35204 ft 479 kts 82°
2026-04-28 19:03 -13.64199 -73.15292 34953 ft 480 kts 82°
2026-04-28 19:04 -13.63841 -73.11873 34613 ft 481 kts 82°
2026-04-28 19:04 -13.63482 -73.08451 34381 ft 482 kts 82°
2026-04-28 19:04 -13.63120 -73.05023 34137 ft 483 kts 82°
2026-04-28 19:04 -13.62759 -73.01585 33879 ft 484 kts 82°
2026-04-28 19:05 -13.62398 -72.98146 33623 ft 487 kts 82°
2026-04-28 19:05 -13.62030 -72.94666 33357 ft 490 kts 82°
2026-04-28 19:05 -13.61661 -72.91186 33124 ft 489 kts 83°
2026-04-28 19:05 -13.61291 -72.87711 32868 ft 487 kts 82°
2026-04-28 19:06 -13.60922 -72.84256 32616 ft 485 kts 82°
2026-04-28 19:06 -13.60677 -72.81972 32455 ft 484 kts 82°
2026-04-28 19:06 -13.60186 -72.77389 32122 ft 481 kts 82°
2026-04-28 19:06 -13.59821 -72.73982 31882 ft 478 kts 82°
2026-04-28 19:07 -13.59459 -72.70591 31629 ft 476 kts 83°
2026-04-28 19:07 -13.59099 -72.67211 31401 ft 474 kts 83°
2026-04-28 19:07 -13.58743 -72.63854 31164 ft 472 kts 83°
2026-04-28 19:07 -13.58388 -72.60514 30933 ft 469 kts 83°
2026-04-28 19:08 -13.58033 -72.57185 30703 ft 467 kts 83°
2026-04-28 19:08 -13.57675 -72.53871 30476 ft 466 kts 83°
2026-04-28 19:08 -13.57317 -72.50571 30225 ft 464 kts 83°
2026-04-28 19:08 -13.56958 -72.47282 29959 ft 462 kts 83°
2026-04-28 19:09 -13.56601 -72.44013 29688 ft 460 kts 83°
2026-04-28 19:09 -13.56247 -72.40750 29424 ft 458 kts 83°
2026-04-28 19:09 -13.55896 -72.37506 29142 ft 456 kts 83°
2026-04-28 19:09 -13.55547 -72.34266 28593 ft 455 kts 83°
2026-04-28 19:10 -13.55200 -72.31046 28013 ft 452 kts 83°
2026-04-28 19:10 -13.54854 -72.27845 27427 ft 449 kts 83°
2026-04-28 19:10 -13.54508 -72.24661 26848 ft 447 kts 83°
2026-04-28 19:10 -13.54162 -72.21498 26342 ft 443 kts 83°
2026-04-28 19:11 -13.53822 -72.18382 26096 ft 435 kts 84°
2026-04-28 19:11 -13.53485 -72.15311 25691 ft 430 kts 84°
2026-04-28 19:11 -13.53154 -72.12299 25545 ft 417 kts 84°
2026-04-28 19:11 -13.52835 -72.09413 25356 ft 395 kts 84°
2026-04-28 19:12 -13.52533 -72.06659 24814 ft 382 kts 84°
2026-04-28 19:12 -13.52238 -72.03963 24229 ft 375 kts 83°
2026-04-28 19:12 -13.51743 -72.01431 24056 ft 360 kts 73°
2026-04-28 19:12 -13.50818 -71.99074 23656 ft 353 kts 62°
2026-04-28 19:13 -13.49587 -71.96904 23524 ft 341 kts 59°
2026-04-28 19:13 -13.48423 -71.94857 23348 ft 332 kts 60°
2026-04-28 19:13 -13.47265 -71.92799 22977 ft 334 kts 60°
2026-04-28 19:13 -13.46110 -71.90743 22599 ft 330 kts 60°
2026-04-28 19:14 -13.44961 -71.88700 22167 ft 330 kts 60°
2026-04-28 19:14 -13.43815 -71.86664 21763 ft 328 kts 60°
2026-04-28 19:14 -13.42674 -71.84636 21413 ft 325 kts 60°
2026-04-28 19:14 -13.41546 -71.82635 20984 ft 326 kts 60°
2026-04-28 19:15 -13.40412 -71.80621 20544 ft 325 kts 60°
2026-04-28 19:15 -13.39281 -71.78619 20134 ft 322 kts 60°
2026-04-28 19:15 -13.38376 -71.76540 19750 ft 317 kts 77°
2026-04-28 19:15 -13.38176 -71.75067 19494 ft 312 kts 90°
2026-04-28 19:16 -13.38763 -71.72204 18954 ft 305 kts 114°
2026-04-28 19:16 -13.39804 -71.70331 18565 ft 300 kts 127°
2026-04-28 19:16 -13.41198 -71.68773 17969 ft 292 kts 141°
2026-04-28 19:16 -13.42821 -71.67627 17636 ft 274 kts 152°
2026-04-28 19:17 -13.44512 -71.66890 17330 ft 256 kts 163°
2026-04-28 19:17 -13.46235 -71.66523 17010 ft 252 kts 174°
2026-04-28 19:17 -13.47959 -71.66499 16703 ft 250 kts 185°
2026-04-28 19:17 -13.49668 -71.66814 16405 ft 249 kts 196°
2026-04-28 19:18 -13.51281 -71.67450 16110 ft 248 kts 207°
2026-04-28 19:18 -13.52745 -71.68384 15814 ft 247 kts 218°
2026-04-28 19:18 -13.54069 -71.69516 15526 ft 246 kts 221°
2026-04-28 19:18 -13.55384 -71.70638 15230 ft 245 kts 220°
2026-04-28 19:19 -13.56657 -71.71796 14928 ft 244 kts 228°
2026-04-28 19:19 -13.57643 -71.73199 14626 ft 241 kts 243°
2026-04-28 19:19 -13.58255 -71.74790 14332 ft 239 kts 256°
2026-04-28 19:19 -13.58465 -71.76477 14037 ft 237 kts 270°
2026-04-28 19:20 -13.58276 -71.78149 13813 ft 235 kts 284°
2026-04-28 19:20 -13.57743 -71.79713 13564 ft 236 kts 294°
2026-04-28 19:20 -13.57114 -71.81291 12984 ft 233 kts 294°
2026-04-28 19:20 -13.56539 -71.82818 12583 ft 224 kts 291°
2026-04-28 19:21 -13.56044 -71.84284 12355 ft 211 kts 289°
2026-04-28 19:21 -13.55575 -71.85683 12055 ft 202 kts 292°
2026-04-28 19:21 -13.54963 -71.86900 11967 ft 183 kts 300°
2026-04-28 19:21 -13.54418 -71.88030 11671 ft 175 kts 292°
2026-04-28 19:22 -13.54104 -71.89219 11362 ft 171 kts 282°
2026-04-28 19:22 -13.53979 -71.90030 11208 ft 170 kts 278°
2026-04-28 19:22 -13.53812 -71.91624 10874 ft 169 kts 277°
2026-04-28 19:22 -13.53687 -71.92816 10743 ft 160 kts 277°
2026-04-28 19:23 -13.53588 -71.93781 10803 ft 98 kts 275°
2026-04-28 19:23 -13.53540 -71.94237 10815 ft 28 kts 276°
2026-04-28 19:23 -13.53551 -71.94330 10814 ft 7 kts 218°
2026-04-28 19:23 -13.53590 -71.94343 10815 ft 5 kts 187°
2026-04-28 19:24 -13.53611 -71.94346 10815 ft 1 kts 187°
2026-04-28 19:24 -13.53614 -71.94346 10815 ft 2 kts 187°
2026-04-28 19:24 -13.53638 -71.94351 10816 ft 2 kts 195°
2026-04-28 19:24 -13.53655 -71.94357 10817 ft 6 kts 201°
2026-04-28 19:25 -13.53685 -71.94370 10817 ft 4 kts 204°
2026-04-28 19:25 -13.53701 -71.94377 10816 ft 1 kts 204°
2026-04-28 19:25 -13.53711 -71.94382 10817 ft 1 kts 205°
2026-04-28 19:25 -13.53715 -71.94384 10817 ft 1 kts 205°
2026-04-28 19:26 -13.53716 -71.94384 10817 ft 0 kts 205°